Location: Evergreen Manor
(41.4083°N, 81.4939°W)
Time: 00:45:07
(UTC+00:00)

YAOGAN 1 - Pass Details

Date: 11 December 2019
Orbit: 619 x 621 km, 98.0° (Epoch: 27 January)

Event Time Altitude Azimuth Distance (km) Brightness Sun altitude
Rises 23:59:51 0° 168° (SSE) 2,882 6.0 -22.4°
Reaches altitude 10° 00:02:01 10° 170° (S) 1,981 5.1 -22.8°
Maximum altitude 00:06:20 80° 258° (WSW) 635 2.6 -23.6°
Drops below altitude 10° 00:10:41 10° 345° (NNW) 1,997 5.2 -24.4°
Sets 00:12:54 0° 347° (NNW) 2,908 6.1 -24.8°
